weather.gov     
National Weather Service

Regional Weather Roundup
NWS Homepage
This page is being discontinued on March 12, 2014.
The same data is available at this site. Please update your bookmarks.
Thank you, and we apologize for the inconvenience.
Please send an email to SR-SRH.Webmaster@noaa.gov with any concerns.


Current Version
Previous Version:    01  02  03  04  05  06  07  08  09  10  11  12  13  14  15  16  17  18  19  20  21  22  23  24  25  
[Printable]
656
ASUS41 KBOX 161610
RWRBOX

REGIONAL WEATHER ROUNDUP
NATIONAL WEATHER SERVICE TAUNTON MA
1200 PM EDT WED APR 16 2014

NOTE:  "FAIR" INDICATES FEW OR NO CLOUDS BELOW 12,000 FEET WITH NO
SIGNIFICANT WEATHER AND/OR OBSTRUCTIONS TO VISIBILITY.  THE FOLLOWING
OBSERVATION LOCATIONS DO NOT REPORT PRESENT WEATHER...PROVINCETOWN...
SMITHFIELD...BLOCK ISLAND...KEENE...AND OXFORD.

MAZALL-161700-
EASTERN MASSACHUSETTS

CITY           SKY/WX    TMP DP  RH WIND       PRES   REMARKS
BOSTON         MOSUNNY   38  19  46 NW15G23   30.30R WCI  29
BEVERLY        MOSUNNY   36  19  50 NW21G33   30.28R WCI  25
LAWRENCE       SUNNY     35  18  49 NW16G24   30.30R WCI  25
BEDFORD        SUNNY     36  21  54 NW22G28   30.29R WCI  25
BLUE HILL        N/A     35  20  54 NW17G26   30.24R WCI  25
NORWOOD        SUNNY     38  19  46 N15G25    30.29R WCI  29
MARSHFIELD       N/A    N/A N/A N/A MISG        N/A
PLYMOUTH       SUNNY     38  19  46 NW18G31   30.27R WCI  28
TAUNTON        SUNNY     42  20  41 N10G22    30.27R
NEW BEDFORD    SUNNY     40  19  43 VRB7G21   30.26R
$$

MAZALL-161700-
CAPE COD AND THE ISLANDS

CITY           SKY/WX    TMP DP  RH WIND       PRES   REMARKS
FALMOUTH       SUNNY     39  18  41 NW15G24   30.26R WCI  31
HYANNIS        SUNNY     38  20  48 N20G38    30.22R WCI  28
CHATHAM        SUNNY     38  21  50 N9G29     30.25R WCI  31
PROVINCETOWN   SUNNY     36  21  55 MISG      30.28R
NANTUCKET      SUNNY     39  22  50 N26G39    30.25R WCI  28
MARTHAS VNYRD  SUNNY     43  18  36 N20G29    30.26R
$$

MAZALL-161700-
CENTRAL AND WESTERN MASSACHUSETTS

CITY           SKY/WX    TMP DP  RH WIND       PRES   REMARKS
WORCESTER      SUNNY     32  17  54 NW16G23   30.26R WCI  21
FITCHBURG      MOSUNNY   37  19  48 NW17G28   30.31R WCI  27
ORANGE         MOSUNNY   32  18  56 N14       30.32R WCI  22
SPRINGFIELD    SUNNY     35  17  46 N22G30    30.32R WCI  24
WESTFIELD      SUNNY     38  16  40 NW22G29   30.32R WCI  27
NORTH ADAMS    SUNNY     31  14  49 N10G20    30.36R WCI  22
PITTSFIELD     SUNNY     28  10  46 NW15G28   30.31R WCI  16
$$

RIZALL-161700-
RHODE ISLAND

CITY           SKY/WX    TMP DP  RH WIND       PRES   REMARKS
PROVIDENCE     MOSUNNY   39  18  42 N15G25    30.29R WCI  31
NEWPORT        SUNNY     39  22  50 N15G24    30.28R WCI  31
BLOCK ISLAND   SUNNY     39  18  41 N12G23    30.29R WCI  32
SMITHFIELD     SUNNY     37  23  56 N17G24    30.29R WCI  28
WESTERLY       SUNNY     39  16  39 NW14G28   30.31R WCI  31
$$

CTZALL-161700-
CONNECTICUT

CITY           SKY/WX    TMP DP  RH WIND       PRES   REMARKS
BRADLEY INTL   SUNNY     39  17  41 N12G23    30.32R WCI  32
HARTFORD       SUNNY     38  12  34 N15G24    30.34R WCI  29
BRIDGEPORT     SUNNY     40  17  39 N16G24    30.35R WCI  31
DANBURY        SUNNY     35  15  44 NW16G25   30.36R WCI  25
GROTON         SUNNY     39  20  46 NW17      30.31R WCI  30
NEW HAVEN      SUNNY     40  15  36 NW15G22   30.34R WCI  32
CHESTER        FAIR      39  14  35 N14G22    30.31R WCI  31
MERIDEN        SUNNY     39  15  37 NW13G23   30.34R WCI  31
WILLIMANTIC    SUNNY     38  15  39 N15G24    30.32R WCI  29
OXFORD         SUNNY     34  16  47 NW14G21   30.34R WCI  24
$$

MEZ002-015-021-024-NHZ003-005-008-011-012-014-VTZ005-008-161700-
NORTHERN NEW ENGLAND

CITY           SKY/WX    TMP DP  RH WIND       PRES   REMARKS
PORTLAND ME    MOSUNNY   34  20  56 N17       30.25R WCI  23
BANGOR ME      MOSUNNY   31  15  52 NW18G30   30.18R WCI  19
CONCORD NH     SUNNY     33  19  56 NW17G28   30.30R WCI  22
MANCHESTER NH  PTSUNNY   34  16  47 NW16G25   30.29R WCI  24
NASHUA NH      MOSUNNY   36  15  42 N20       30.31R WCI  25
PORTSMOUTH NH  MOSUNNY   37  18  45 NW20      30.26R WCI  27
JAFFREY NH     SUNNY     30  16  56 NW10G17   30.28R WCI  21
KEENE NH       SUNNY     30  16  55 N15G21    30.34R WCI  19
BURLINGTON VT  MOSUNNY   27  10  49 NW17      30.42R WCI  14
MT. WASHINGTON FOG        0   0 100 NW63G69     N/A  VSB 0   WCI -34
$$

NYZ052-076-161700-
EASTERN NEW YORK

CITY           SKY/WX    TMP DP  RH WIND       PRES   REMARKS
ALBANY         MOSUNNY   32  12  43 NW16G23   30.41R WCI  21
NEW YORK CITY  MOSUNNY   39  15  37 NW14G23   30.38R WCI  31
$$

ANZALL-161700-
MARINE OBSERVATIONS

STATION/POSITION TIME  TEMP    WIND        PRES    VSBY  WAVE
                       AIR SEA DIR/SP/G                  HT/PER
                 (UTC) (F)     (DEG/KT/KT) (MB)    (MI)  (FT/S)
BOSTON BUOY      1550   34 40  330/ 19/ 23 1025.0R         4/11
BUZZARDS BAY     1500          330/ 22/ 25 1024.7R
NANTUCKET SOUND  1550   36 45  350/ 25/ 31 1023.6R
MASS BAY-STELLWA 1504   32 39  310/ 21/ 31 1022.9R  1 7/8  4/ 4
ISLE OF SHOALS   1600   33     320/ 18/ 20 1024.5R
S OF BLOCK IS    1525      42                N/A           7/ 5
$$

......................KEY.........................
  SKY/WX - SKY CONDITION/PRESENT WEATHER
  TMP    - TEMPERATURE IN FAHRENHEIT
  DWPT   - DEWPOINT IN FAHRENHEIT
  RH     - RELATIVE HUMIDITY IN PERCENT
  WIND   - DIRECTION AND SPEED IN MPH
  PRES   - MEAN SEA LEVEL PRESSURE IN INCHES OF HG
  WCI    - WIND CHILL INDEX
  VSB    - VISIBILITY IN MILES
  HX     - HEAT INDEX
  TC     - TEMPERATURE IN CELSIUS
  VRB    - VARIABLE WIND DIRECTION
  N/A    - NOT AVAILABLE




U.S. Dept. of Commerce
NOAA National Weather Service
1325 East West Highway
Silver Spring, MD 20910
E-mail: w-nws.webmaster@noaa.gov
Page last modified: May 16, 2007
NATIONAL WEATHER SERVICE: for Safety, for Work, for Fun - FOR LIFE